This is the latest recevied weather packets stored in our database for station/object OE-11049. If no packets are shown the sender has not sent any weather packets the latest 10 day(s).
| Time | Temp. | Humidity | Pressure | Rain* | Wind** | Luminosity | Snow |
|---|---|---|---|---|---|---|---|
| 1787898916 | 20° C | 76% | 1010.8 hPa | 0 mm | - | 187 W/m² | - |
| 1787898317 | 20° C | 75% | 1010.9 hPa | 0 mm | - | 170 W/m² | - |
| 1787897489 | 19.44° C | 76% | 1011 hPa | 0 mm | - | 140 W/m² | - |
| 1787897116 | 19.44° C | 77% | 1011 hPa | 0 mm | - | 111 W/m² | - |
| 1787896516 | 18.89° C | 78% | 1011 hPa | 0 mm | - | 99 W/m² | - |
| 1787895689 | 18.33° C | 78% | 1011 hPa | 0 mm | - | 82 W/m² | - |
| 1787895317 | 18.33° C | 79% | 1011.1 hPa | 0 mm | - | 41 W/m² | - |
| 1787894717 | 18.33° C | 79% | 1010.8 hPa | 0 mm | - | 35 W/m² | - |
| 1787893890 | 18.33° C | 78% | 1010.8 hPa | 0 mm | - | 18 W/m² | - |
| 1787893517 | 18.33° C | 79% | 1010.6 hPa | 0 mm | - | 12 W/m² | - |
| 1787892917 | 18.33° C | 79% | 1010.6 hPa | 0 mm | - | 12 W/m² | - |
| 1787892089 | 18.33° C | 80% | 1010.7 hPa | 0 mm | - | 6 W/m² | - |
| 1787891716 | 17.78° C | 83% | 1010.5 hPa | 0 mm | - | 0 W/m² | - |
| 1787891117 | 17.78° C | 83% | 1010.9 hPa | 0 mm | - | 0 W/m² | - |
| 1787890290 | 17.78° C | 82% | 1011 hPa | 0 mm | - | 0 W/m² | - |
| 1787889917 | 17.78° C | 82% | 1011.1 hPa | 0 mm | - | 0 W/m² | - |
| 1787889317 | 17.78° C | 84% | 1011.3 hPa | 0 mm | - | 0 W/m² | - |
| 1787888716 | 17.78° C | 83% | 1011.3 hPa | 0 mm | - | 0 W/m² | - |
| 1787888116 | 17.78° C | 84% | 1011.2 hPa | 0 mm | - | 0 W/m² | - |
| 1787887516 | 17.78° C | 83% | 1011.2 hPa | 0 mm | - | 0 W/m² | - |
| 1787886689 | 17.78° C | 82% | 1011.3 hPa | 0 mm | - | 0 W/m² | - |
| 1787886315 | 18.33° C | 81% | 1011.4 hPa | 0 mm | - | 0 W/m² | - |
| 1787885717 | 18.33° C | 81% | 1011.4 hPa | 0 mm | - | 0 W/m² | - |
| 1787884890 | 18.33° C | 79% | 1011.3 hPa | 0 mm | - | 0 W/m² | - |
| 1787884517 | 18.33° C | 79% | 1011.3 hPa | 0 mm | - | 0 W/m² | - |
* Rain latest hour (hover to see other rain measurements)
** Current wind speed in m/s (hover to see current wind gust speed)